Thedford, NE

2:34 AM CDT on April 26, 2017 (GMT -0500)
Thedford

Weather History for KTIF - January, 2013

Change the Weather History Date:

Thursday, January 17, 2013

  Actual Average (KANW) Record (KANW)
Temperature  
Mean Temperature 36 °F -  
Max Temperature 50 °F 33 °F 51 °F (2000)
Min Temperature 22 °F 13 °F -8 °F (2016)
Degree Days  
Heating Degree Days 29    
Moisture  
Dew Point 21 °F    
Average Humidity 63    
Maximum Humidity 84    
Minimum Humidity 31    
Precipitation  
Precipitation 0.00 in - - ()
Sea Level Pressure  
Sea Level Pressure 30.31 in    
Wind  
Wind Speed 6 mph (West)    
Max Wind Speed 13 mph    
Max Gust Speed 18 mph    
Visibility 10 miles    
Events      
Averages and records for this station are not official NWS values.
T = Trace of Precipitation, MM = Missing Value Source: NWS Daily Summary

Daily Weather History Graph

Daily Weather History Graph

Search for Another Location

Airport or City:

Trip Planner

Search our weather history database for the weather conditions in past years. The results will help you decide how hot, cold, wet, or windy it might be!

Date:

Astronomy

Jan. 17, 2013 Rise Set
Actual Time 8:06 AM CST 5:38 PM CST
Civil Twilight 7:35 AM CST 6:09 PM CST
Nautical Twilight 7:01 AM CST 6:43 PM CST
Astronomical Twilight 6:28 AM CST 7:17 PM CST
Moon 11:07 AM CST (1/17) No Moon Set
Length of Visible Light 10h 33m
Length of Day
9h 32m
Waxing Crescent, 38% of the Moon is Illuminated
Jan 17
Waxing Crescent
Jan 18
First Quarter
Jan 26
Full
Feb 3
Last Quarter
Feb 10
New

Hourly Weather History & Observations

Time (CST) Temp. Windchill Dew Point Humidity Pressure Visibility Wind Dir Wind Speed Gust Speed Precip Events Conditions
12:15 AM 27.7 °F 21.3 °F 22.8 °F 82% 30.26 in 10.0 mi West 5.8 mph - N/A   Clear
12:35 AM 28.4 °F 24.6 °F 22.5 °F 78% 30.27 in 10.0 mi West 3.5 mph - N/A   Clear
12:55 AM 27.5 °F 22.2 °F 21.9 °F 80% 30.28 in 10.0 mi West 4.6 mph - N/A   Clear
1:15 AM 27.1 °F 21.8 °F 21.7 °F 80% 30.28 in 10.0 mi West 4.6 mph - N/A   Clear
1:35 AM 25.9 °F 19.2 °F 20.8 °F 81% 30.29 in 10.0 mi SW 5.8 mph - N/A   Clear
1:55 AM 25.7 °F 19.0 °F 21.0 °F 82% 30.30 in 10.0 mi West 5.8 mph - N/A   Clear
2:15 AM 24.6 °F 20.3 °F 20.3 °F 84% 30.31 in 10.0 mi WNW 3.5 mph - N/A   Clear
2:35 AM 25.3 °F 18.5 °F 21.0 °F 84% 30.32 in 10.0 mi WNW 5.8 mph - N/A   Clear
2:55 AM 26.4 °F 18.0 °F 21.2 °F 81% 30.32 in 10.0 mi West 8.1 mph - N/A   Clear
3:35 AM 27.1 °F 19.7 °F 21.0 °F 78% 30.33 in 10.0 mi West 6.9 mph - N/A   Clear
3:55 AM 25.5 °F 19.9 °F 20.3 °F 81% 30.33 in 10.0 mi WNW 4.6 mph - N/A   Clear
4:15 AM 24.8 °F 16.9 °F 19.9 °F 82% 30.33 in 10.0 mi WNW 6.9 mph - N/A   Clear
4:35 AM 25.0 °F 17.1 °F 19.8 °F 81% 30.33 in 10.0 mi West 6.9 mph - N/A   Clear
4:55 AM 25.2 °F 15.7 °F 19.8 °F 80% 30.33 in 10.0 mi WNW 9.2 mph - N/A   Clear
5:15 AM 25.3 °F 16.0 °F 19.9 °F 80% 30.33 in 10.0 mi West 9.2 mph - N/A   Clear
5:35 AM 25.9 °F 19.2 °F 20.3 °F 79% 30.34 in 10.0 mi West 5.8 mph - N/A   Clear
6:15 AM 25.2 °F 17.3 °F 19.2 °F 78% 30.34 in 10.0 mi West 6.9 mph - N/A   Clear
6:35 AM 24.6 °F 17.7 °F 18.5 °F 78% 30.35 in 10.0 mi West 5.8 mph - N/A   Clear
6:55 AM 23.7 °F 19.3 °F 18.1 °F 79% 30.35 in 10.0 mi WNW 3.5 mph - N/A   Clear
7:15 AM 23.0 °F 13.9 °F 17.8 °F 80% 30.36 in 10.0 mi West 8.1 mph - N/A   Clear
7:35 AM 23.9 °F 15.8 °F 18.1 °F 79% 30.36 in 10.0 mi West 6.9 mph - N/A   Clear
7:55 AM 23.4 °F 16.2 °F 17.6 °F 79% 30.36 in 10.0 mi West 5.8 mph - N/A   Clear
8:15 AM 23.2 °F 17.2 °F 17.6 °F 79% 30.36 in 10.0 mi West 4.6 mph - N/A   Clear
8:35 AM 22.3 °F 16.1 °F 17.2 °F 81% 30.37 in 10.0 mi West 4.6 mph - N/A   Clear
8:55 AM 24.8 °F 17.9 °F 18.3 °F 76% 30.39 in 10.0 mi WNW 5.8 mph - N/A   Clear
9:15 AM 27.3 °F 19.9 °F 19.4 °F 72% 30.39 in 10.0 mi WNW 6.9 mph - N/A   Clear
9:35 AM 28.8 °F 20.2 °F 20.1 °F 70% 30.40 in 10.0 mi WNW 9.2 mph - N/A   Clear
9:55 AM 30.7 °F 24.1 °F 20.8 °F 67% 30.41 in 10.0 mi WNW 6.9 mph - N/A   Clear
10:15 AM 32.9 °F 26.7 °F 21.7 °F 64% 30.41 in 10.0 mi WNW 6.9 mph - N/A   Clear
10:35 AM 34.7 °F 27.5 °F 22.8 °F 62% 30.41 in 10.0 mi WNW 9.2 mph - N/A   Clear
10:55 AM 36.7 °F 30.5 °F 22.6 °F 57% 30.41 in 10.0 mi West 8.1 mph - N/A   Clear
11:15 AM 38.7 °F 34.3 °F 22.6 °F 53% 30.40 in 10.0 mi West 5.8 mph - N/A   Clear
11:35 AM 40.1 °F 36.1 °F 21.4 °F 47% 30.39 in 10.0 mi WNW 5.8 mph - N/A   Clear
11:55 AM 41.5 °F 37.8 °F 21.2 °F 44% 30.38 in 10.0 mi WNW 5.8 mph - N/A   Clear
12:15 PM 42.6 °F 40.9 °F 21.4 °F 43% 30.37 in 10.0 mi NW 3.5 mph - N/A   Clear
12:35 PM 44.6 °F 42.2 °F 21.0 °F 39% 30.36 in 10.0 mi West 4.6 mph - N/A   Clear
12:55 PM 46.0 °F 43.1 °F 20.8 °F 37% 30.35 in 10.0 mi West 5.8 mph - N/A   Clear
1:15 PM 47.5 °F - 21.0 °F 35% 30.35 in 10.0 mi WNW 10.4 mph - N/A   Clear
1:35 PM 47.1 °F - 21.0 °F 36% 30.33 in 10.0 mi West 10.4 mph - N/A   Clear
1:55 PM 48.4 °F - 20.8 °F 34% 30.32 in 10.0 mi WNW 10.4 mph - N/A   Clear
2:15 PM 48.9 °F - 20.5 °F 33% 30.31 in 10.0 mi West 10.4 mph - N/A   Clear
2:35 PM 49.1 °F - 20.5 °F 32% 30.30 in 10.0 mi West 10.4 mph - N/A   Clear
2:55 PM 49.1 °F - 20.3 °F 32% 30.29 in 10.0 mi West 11.5 mph - N/A   Clear
3:15 PM 49.6 °F - 20.1 °F 31% 30.28 in 10.0 mi WNW 12.7 mph - N/A   Clear
3:35 PM 50.0 °F - 20.7 °F 32% 30.28 in 10.0 mi West 12.7 mph 17.3 mph N/A   Clear
3:55 PM 49.1 °F - 20.5 °F 32% 30.28 in 10.0 mi West 12.7 mph 18.4 mph N/A   Clear
4:55 PM 47.1 °F - 22.1 °F 37% 30.28 in 10.0 mi West 9.2 mph - N/A   Clear
5:35 PM 41.9 °F 38.2 °F 22.5 °F 46% 30.27 in 10.0 mi WSW 5.8 mph - N/A   Clear
7:55 PM 35.6 °F 28.6 °F 23.9 °F 62% 30.23 in 10.0 mi SSW 9.2 mph - N/A   Clear
8:15 PM 34.7 °F - 23.7 °F 64% 30.22 in 10.0 mi Calm Calm - N/A   Clear
8:55 PM 35.2 °F 27.6 °F 22.8 °F 61% 30.20 in 10.0 mi SSW 10.4 mph - N/A   Clear
9:15 PM 36.5 °F 28.7 °F 23.0 °F 58% 30.20 in 10.0 mi SSW 11.5 mph - N/A   Clear
9:35 PM 36.7 °F 30.5 °F 23.0 °F 58% 30.20 in 10.0 mi SSW 8.1 mph - N/A   Clear
9:55 PM 36.5 °F 28.7 °F 22.8 °F 58% 30.19 in 10.0 mi SSW 11.5 mph - N/A   Clear
11:15 PM 35.8 °F 30.1 °F 22.1 °F 58% 30.16 in 10.0 mi SSW 6.9 mph - N/A   Clear
11:35 PM 34.3 °F - 22.1 °F 61% 30.16 in 10.0 mi Calm Calm - N/A   Clear
11:55 PM 32.2 °F - 21.6 °F 65% 30.15 in 10.0 mi Calm Calm - N/A   Clear